When you browse on this site, cookies collect data to enhance your experience and personalize the content and advertising you see.
Visit our Privacy Policy to learn more. By continuing to use the site, you agree to this use of cookies and data.
  • en Suisse
  • Liste des pays
  • À 7 jours
  • Température de l'eau
  • Carte météo
  • Widgets météo
  • user-avatar
    Se connecter

    Météo par heure à Newcastle upon Tyne

    Ce jour, 17 Septembre, Mardi

    Heure Température Précipitation Vent Pression Humidité
    00:00 +8°C° 0 mm 6 m/s 761 mmHg 81%
    01:00 +7°C° 0 mm 6 m/s 761 mmHg 82%
    02:00 +7°C° 0 mm 6 m/s 761 mmHg 84%
    03:00 +7°C° 0 mm 6 m/s 761 mmHg 85%
    04:00 +7°C° 0 mm 5 m/s 761 mmHg 86%
    05:00 +6°C° 0 mm 5 m/s 761 mmHg 87%
    06:00 +6°C° 0 mm 5 m/s 762 mmHg 88%
    07:00 +7°C° 0 mm 5 m/s 762 mmHg 81%
    08:00 +8°C° 0 mm 5 m/s 762 mmHg 74%
    09:00 +10°C° 0 mm 5 m/s 763 mmHg 66%
    10:00 +10°C° 0 mm 5 m/s 763 mmHg 63%
    11:00 +12°C° 0 mm 5 m/s 763 mmHg 60%
    12:00 +13°C° 0 mm 5 m/s 763 mmHg 57%
    13:00 +13°C° 0 mm 4 m/s 763 mmHg 56%
    14:00 +13°C° 0 mm 4 m/s 764 mmHg 56%
    15:00 +13°C° 0 mm 4 m/s 764 mmHg 55%
    16:00 +12°C° 0 mm 3 m/s 764 mmHg 60%
    17:00 +11°C° 0 mm 3 m/s 764 mmHg 65%
    18:00 +10°C° 0 mm 2 m/s 764 mmHg 70%
    19:00 +9°C° 0 mm 2 m/s 764 mmHg 72%
    20:00 +10°C° 0 mm 1 m/s 765 mmHg 75%
    21:00 +9°C° 0 mm 1 m/s 765 mmHg 77%
    22:00 +9°C° 0 mm 1 m/s 765 mmHg 78%
    23:00 +8°C° 0 mm 1 m/s 765 mmHg 79%

    Demain, 18 Septembre, Mercredi

    Heure Température Précipitation Vent Pression Humidité
    00:00 +8°C° 0 mm 1 m/s 765 mmHg 80%
    01:00 +8°C° 0 mm 1 m/s 765 mmHg 81%
    02:00 +8°C° 0 mm 1 m/s 765 mmHg 82%
    03:00 +8°C° 0 mm 1 m/s 765 mmHg 83%
    04:00 +8°C° 0 mm 1 m/s 765 mmHg 81%
    05:00 +7°C° 0 mm 2 m/s 765 mmHg 80%
    06:00 +8°C° 0 mm 2 m/s 765 mmHg 79%
    07:00 +9°C° 0 mm 2 m/s 766 mmHg 76%
    08:00 +10°C° 0 mm 2 m/s 766 mmHg 73%
    09:00 +12°C° 0 mm 2 m/s 766 mmHg 70%
    10:00 +13°C° 0 mm 2 m/s 766 mmHg 67%
    11:00 +15°C° 0 mm 2 m/s 766 mmHg 63%
    12:00 +16°C° 0 mm 2 m/s 766 mmHg 60%
    13:00 +16°C° 0 mm 3 m/s 766 mmHg 63%
    14:00 +16°C° 0 mm 3 m/s 766 mmHg 66%
    15:00 +16°C° 0 mm 3 m/s 766 mmHg 68%
    16:00 +14°C° 0 mm 3 m/s 765 mmHg 73%
    17:00 +14°C° 0 mm 3 m/s 765 mmHg 78%
    18:00 +13°C° 0 mm 3 m/s 765 mmHg 82%
    19:00 +12°C° 0 mm 3 m/s 766 mmHg 84%
    20:00 +11°C° 0 mm 3 m/s 766 mmHg 85%
    21:00 +11°C° 0 mm 3 m/s 766 mmHg 86%
    22:00 +10°C° 0 mm 3 m/s 766 mmHg 87%
    23:00 +10°C° 0 mm 3 m/s 766 mmHg 88%

    Après-demain, 19 Septembre, Jeudi

    Heure Température Précipitation Vent Pression Humidité
    00:00 +10°C° 0 mm 2 m/s 766 mmHg 88%
    01:00 +10°C° 0 mm 2 m/s 766 mmHg 89%
    02:00 +10°C° 0 mm 2 m/s 766 mmHg 89%
    03:00 +10°C° 0 mm 2 m/s 766 mmHg 89%
    04:00 +10°C° 0 mm 2 m/s 766 mmHg 89%
    05:00 +9°C° 0 mm 2 m/s 766 mmHg 90%
    06:00 +9°C° 0 mm 2 m/s 766 mmHg 90%
    07:00 +12°C° 0 mm 2 m/s 767 mmHg 85%
    08:00 +13°C° 0 mm 1 m/s 767 mmHg 81%
    09:00 +15°C° 0 mm 1 m/s 767 mmHg 77%
    10:00 +16°C° 0 mm 1 m/s 767 mmHg 73%
    11:00 +18°C° 0 mm 1 m/s 767 mmHg 69%
    12:00 +20°C° 0 mm 1 m/s 767 mmHg 65%
    13:00 +20°C° 0 mm 1 m/s 767 mmHg 66%
    14:00 +19°C° 0 mm 2 m/s 766 mmHg 66%
    15:00 +19°C° 0 mm 2 m/s 766 mmHg 67%
    16:00 +18°C° 0 mm 2 m/s 766 mmHg 72%
    17:00 +17°C° 0 mm 2 m/s 766 mmHg 78%
    18:00 +16°C° 0 mm 2 m/s 766 mmHg 83%
    19:00 +15°C° 0 mm 2 m/s 766 mmHg 85%
    20:00 +14°C° 0 mm 2 m/s 766 mmHg 86%
    21:00 +14°C° 0 mm 1 m/s 766 mmHg 87%
    22:00 +13°C° 0 mm 1 m/s 766 mmHg 88%
    23:00 +13°C° 0 mm 1 m/s 766 mmHg 88%

    20 Septembre, Vendredi

    Heure Température Précipitation Vent Pression Humidité
    00:00 +13°C° 0 mm 1 m/s 765 mmHg 88%
    01:00 +13°C° 0 mm 1 m/s 765 mmHg 89%
    02:00 +12°C° 0 mm 1 m/s 765 mmHg 90%
    03:00 +12°C° 0 mm 1 m/s 765 mmHg 90%
    04:00 +12°C° 0 mm 1 m/s 765 mmHg 90%
    05:00 +12°C° 0 mm 2 m/s 764 mmHg 90%
    06:00 +12°C° 0 mm 2 m/s 764 mmHg 90%
    07:00 +13°C° 0 mm 2 m/s 764 mmHg 84%
    08:00 +15°C° 0 mm 2 m/s 764 mmHg 78%
    09:00 +16°C° 0 mm 2 m/s 764 mmHg 72%
    10:00 +18°C° 0 mm 2 m/s 764 mmHg 69%
    11:00 +19°C° 0 mm 3 m/s 763 mmHg 65%
    12:00 +20°C° 0 mm 3 m/s 763 mmHg 62%
    13:00 +21°C° 0 mm 4 m/s 763 mmHg 63%
    14:00 +21°C° 0 mm 4 m/s 762 mmHg 63%
    15:00 +21°C° 0 mm 4 m/s 761 mmHg 64%
    16:00 +20°C° 0 mm 4 m/s 761 mmHg 68%
    17:00 +18°C° 0 mm 4 m/s 761 mmHg 72%
    18:00 +17°C° 0 mm 4 m/s 760 mmHg 76%
    19:00 +15°C° 0 mm 5 m/s 760 mmHg 80%
    20:00 +14°C° 0 mm 5 m/s 760 mmHg 83%
    21:00 +14°C° 0 mm 5 m/s 760 mmHg 86%
    22:00 +13°C° 0 mm 5 m/s 759 mmHg 85%
    23:00 +13°C° 0 mm 5 m/s 759 mmHg 83%

    21 Septembre, Samedi

    Heure Température Précipitation Vent Pression Humidité
    00:00 +12°C° 0 mm 5 m/s 759 mmHg 82%
    01:00 +12°C° 0 mm 5 m/s 758 mmHg 82%
    02:00 +10°C° 0 mm 5 m/s 758 mmHg 82%
    03:00 +10°C° 0 mm 5 m/s 757 mmHg 81%
    04:00 +10°C° 0 mm 5 m/s 757 mmHg 83%
    05:00 +10°C° 0 mm 5 m/s 756 mmHg 84%
    06:00 +9°C° 0 mm 5 m/s 755 mmHg 85%
    07:00 +11°C° 0 mm 6 m/s 755 mmHg 79%
    08:00 +13°C° 0 mm 6 m/s 755 mmHg 73%
    09:00 +14°C° 0 mm 7 m/s 754 mmHg 67%
    10:00 +15°C° 0 mm 7 m/s 754 mmHg 64%
    11:00 +17°C° 0 mm 7 m/s 753 mmHg 60%
    12:00 +18°C° 0 mm 8 m/s 753 mmHg 57%
    13:00 +18°C° 0 mm 8 m/s 752 mmHg 57%
    14:00 +18°C° 0 mm 8 m/s 752 mmHg 58%
    15:00 +18°C° 0 mm 7 m/s 751 mmHg 58%
    16:00 +18°C° 0 mm 7 m/s 751 mmHg 61%
    17:00 +17°C° 0 mm 6 m/s 750 mmHg 65%
    18:00 +16°C° 0 mm 5 m/s 750 mmHg 69%
    19:00 +15°C° 0.2 mm 5 m/s 750 mmHg 72%
    20:00 +15°C° 0.2 mm 5 m/s 750 mmHg 75%
    21:00 +15°C° 0.2 mm 4 m/s 750 mmHg 78%
    22:00 +15°C° 0.4 mm 4 m/s 750 mmHg 81%
    23:00 +15°C° 0.4 mm 5 m/s 749 mmHg 84%

    22 Septembre, Dimanche

    Heure Température Précipitation Vent Pression Humidité
    00:00 +15°C° 0.4 mm 5 m/s 749 mmHg 87%
    01:00 +15°C° 0.1 mm 5 m/s 749 mmHg 88%
    02:00 +15°C° 0.1 mm 5 m/s 748 mmHg 90%
    03:00 +15°C° 0.1 mm 5 m/s 748 mmHg 92%
    04:00 +15°C° 0 mm 5 m/s 748 mmHg 91%
    05:00 +15°C° 0 mm 5 m/s 748 mmHg 91%
    06:00 +15°C° 0 mm 5 m/s 748 mmHg 91%
    07:00 +15°C° 0 mm 5 m/s 749 mmHg 86%
    08:00 +16°C° 0 mm 5 m/s 749 mmHg 82%
    09:00 +17°C° 0 mm 5 m/s 749 mmHg 77%
    10:00 +19°C° 0 mm 6 m/s 749 mmHg 73%
    11:00 +19°C° 0 mm 6 m/s 749 mmHg 70%
    12:00 +20°C° 0 mm 7 m/s 750 mmHg 66%
    13:00 +18°C° 0 mm 7 m/s 750 mmHg 66%
    14:00 +18°C° 0 mm 7 m/s 750 mmHg 65%
    15:00 +18°C° 0 mm 7 m/s 750 mmHg 65%
    16:00 +16°C° 0 mm 6 m/s 750 mmHg 67%
    17:00 +15°C° 0 mm 6 m/s 750 mmHg 70%
    18:00 +14°C° 0 mm 5 m/s 751 mmHg 72%
    19:00 +14°C° 0 mm 5 m/s 751 mmHg 75%
    20:00 +13°C° 0 mm 4 m/s 752 mmHg 78%
    21:00 +12°C° 0 mm 4 m/s 752 mmHg 81%
    22:00 +12°C° 0 mm 4 m/s 752 mmHg 82%
    23:00 +12°C° 0 mm 4 m/s 752 mmHg 83%
    Voir plus